Time,TemperatureF,DewpointF,PressureIn,WindDirection,WindDirectionDegrees,WindSpeedMPH,WindSpeedGustMPH,Humidity,HourlyPrecipIn,Conditions,Clouds,dailyrainin,SolarRadiationWatts/m^2,SoftwareType,DateUTC
2013-02-03 00:02:00,8.0,-5.0,-100.00,West,272,3.0,5.0,55,0.00,,,0.02,32.000000,,2013-02-03 00:02:00,
2013-02-03 00:11:00,8.0,-5.0,-100.00,West,272,3.0,5.0,55,0.00,,,0.02,32.000000,,2013-02-03 00:11:00,
2013-02-03 00:32:00,5.0,-4.0,-100.00,SSE,165,1.0,4.0,67,0.00,,,0.02,0.000000,,2013-02-03 00:32:00,
2013-02-03 00:42:00,5.0,-4.0,-100.00,SSE,165,1.0,4.0,67,0.00,,,0.02,0.000000,,2013-02-03 00:42:00,
2013-02-03 00:52:00,5.0,-4.0,-100.00,SSE,165,1.0,4.0,67,0.00,,,0.02,0.000000,,2013-02-03 00:52:00,
2013-02-03 01:02:00,5.0,-4.0,-100.00,SSE,165,1.0,4.0,67,0.00,,,0.02,0.000000,,2013-02-03 01:02:00,
2013-02-03 01:11:00,5.0,-4.0,-100.00,SSE,165,1.0,4.0,67,0.00,,,0.02,0.000000,,2013-02-03 01:11:00,
2013-02-03 01:32:00,2.0,-2.0,-100.00,WNW,299,0.0,2.0,81,0.00,,,0.02,0.000000,,2013-02-03 01:32:00,
2013-02-03 01:42:00,2.0,-2.0,-100.00,WNW,299,0.0,2.0,81,0.00,,,0.02,0.000000,,2013-02-03 01:42:00,
2013-02-03 01:52:00,2.0,-2.0,-100.00,WNW,299,0.0,2.0,81,0.00,,,0.02,0.000000,,2013-02-03 01:52:00,
2013-02-03 02:01:00,2.0,-2.0,-100.00,WNW,299,0.0,2.0,81,0.00,,,0.02,0.000000,,2013-02-03 02:01:00,
2013-02-03 02:11:00,2.0,-2.0,-100.00,WNW,299,0.0,2.0,81,0.00,,,0.02,0.000000,,2013-02-03 02:11:00,
2013-02-03 02:42:00,-2.0,-5.0,-100.00,WSW,242,0.0,0.0,85,0.00,,,-99.99,0.000000,,2013-02-03 02:42:00,
2013-02-03 02:52:00,-2.0,-5.0,-100.00,WSW,242,0.0,0.0,85,0.00,,,-99.99,0.000000,,2013-02-03 02:52:00,
2013-02-03 03:02:00,-2.0,-5.0,-100.00,WSW,242,0.0,0.0,85,0.00,,,-99.99,0.000000,,2013-02-03 03:02:00,
2013-02-03 03:11:00,-2.0,-5.0,-100.00,WSW,242,0.0,0.0,85,0.00,,,-99.99,0.000000,,2013-02-03 03:11:00,
2013-02-03 03:32:00,-3.0,-7.0,-100.00,NNW,332,1.0,2.0,83,0.00,,,0.02,0.000000,,2013-02-03 03:32:00,
2013-02-03 03:42:00,-3.0,-7.0,-100.00,NNW,332,1.0,2.0,83,0.00,,,0.02,0.000000,,2013-02-03 03:42:00,
2013-02-03 03:52:00,-3.0,-7.0,-100.00,NNW,332,1.0,2.0,83,0.00,,,0.02,0.000000,,2013-02-03 03:52:00,
2013-02-03 04:01:00,-3.0,-7.0,-100.00,NNW,332,1.0,2.0,83,0.00,,,0.02,0.000000,,2013-02-03 04:01:00,
2013-02-03 04:11:00,-3.0,-7.0,-100.00,NNW,332,1.0,2.0,83,0.00,,,0.02,0.000000,,2013-02-03 04:11:00,
2013-02-03 04:12:00,-3.0,-7.0,-100.00,SSW,206,0.0,3.0,82,0.00,,,0.02,0.000000,,2013-02-03 04:12:00,
2013-02-03 04:32:00,-3.0,-7.0,-100.00,SSW,206,0.0,3.0,82,0.00,,,0.02,0.000000,,2013-02-03 04:32:00,
2013-02-03 04:42:00,-3.0,-7.0,-100.00,SSW,206,0.0,3.0,82,0.00,,,0.02,0.000000,,2013-02-03 04:42:00,
2013-02-03 04:52:00,-3.0,-7.0,-100.00,SSW,206,0.0,3.0,82,0.00,,,0.02,0.000000,,2013-02-03 04:52:00,
2013-02-03 05:03:00,-3.0,-7.0,-100.00,SSW,206,0.0,3.0,82,0.00,,,0.02,0.000000,,2013-02-03 05:03:00,
2013-02-03 05:32:00,-1.0,-5.0,-100.00,SSW,195,1.0,2.0,84,0.00,,,0.02,0.000000,,2013-02-03 05:32:00,
2013-02-03 05:42:00,-1.0,-5.0,-100.00,SSW,195,1.0,2.0,84,0.00,,,0.02,0.000000,,2013-02-03 05:42:00,
2013-02-03 05:52:00,-1.0,-5.0,-100.00,SSW,195,1.0,2.0,84,0.00,,,0.02,0.000000,,2013-02-03 05:52:00,
2013-02-03 06:02:00,-1.0,-5.0,-100.00,SSW,195,1.0,2.0,84,0.00,,,0.02,0.000000,,2013-02-03 06:02:00,
2013-02-03 06:11:00,-1.0,-5.0,-100.00,SSW,195,1.0,2.0,84,0.00,,,0.02,0.000000,,2013-02-03 06:11:00,
2013-02-03 06:32:00,0.0,-4.0,-100.00,South,189,1.0,2.0,83,0.00,,,0.01,0.000000,,2013-02-03 06:32:00,
2013-02-03 06:42:00,0.0,-4.0,-100.00,South,189,1.0,2.0,83,0.00,,,0.01,0.000000,,2013-02-03 06:42:00,
2013-02-03 06:52:00,0.0,-4.0,-100.00,South,189,1.0,2.0,83,0.00,,,0.01,0.000000,,2013-02-03 06:52:00,
2013-02-03 07:01:00,0.0,-4.0,-100.00,South,189,1.0,2.0,83,0.00,,,0.01,0.000000,,2013-02-03 07:01:00,
2013-02-03 07:11:00,0.0,-4.0,-100.00,South,189,1.0,2.0,83,0.00,,,0.01,0.000000,,2013-02-03 07:11:00,
2013-02-03 07:32:00,-3.0,-7.0,-100.00,West,266,1.0,2.0,81,0.00,,,0.01,0.000000,,2013-02-03 07:32:00,
2013-02-03 07:42:00,-3.0,-7.0,-100.00,West,266,1.0,2.0,81,0.00,,,0.01,0.000000,,2013-02-03 07:42:00,
2013-02-03 07:52:00,-3.0,-7.0,-100.00,West,266,1.0,2.0,81,0.00,,,0.01,0.000000,,2013-02-03 07:52:00,
2013-02-03 08:01:00,-3.0,-7.0,-100.00,West,266,1.0,2.0,81,0.00,,,0.01,0.000000,,2013-02-03 08:01:00,
2013-02-03 08:11:00,-3.0,-7.0,-100.00,West,266,1.0,2.0,81,0.00,,,0.01,0.000000,,2013-02-03 08:11:00,
2013-02-03 09:42:00,-1.0,-5.0,-100.00,SSW,201,1.0,2.0,84,-99.99,,,0.00,0.000000,,2013-02-03 09:42:00,
2013-02-03 09:52:00,-1.0,-5.0,-100.00,SSW,201,1.0,2.0,84,-99.99,,,0.00,0.000000,,2013-02-03 09:52:00,
2013-02-03 10:01:00,-1.0,-5.0,-100.00,SSW,201,1.0,2.0,84,-99.99,,,0.00,0.000000,,2013-02-03 10:01:00,
2013-02-03 10:11:00,-1.0,-5.0,-100.00,SSW,201,1.0,2.0,84,-99.99,,,0.00,0.000000,,2013-02-03 10:11:00,
2013-02-03 10:32:00,1.0,-2.0,-100.00,WSW,242,1.0,2.0,85,0.00,,,0.00,0.000000,,2013-02-03 10:32:00,
2013-02-03 10:42:00,1.0,-2.0,-100.00,WSW,242,1.0,2.0,85,0.00,,,0.00,0.000000,,2013-02-03 10:42:00,
2013-02-03 10:53:00,1.0,-2.0,-100.00,WSW,242,1.0,2.0,85,0.00,,,0.00,0.000000,,2013-02-03 10:53:00,
2013-02-03 11:02:00,1.0,-2.0,-100.00,WSW,242,1.0,2.0,85,0.00,,,0.00,0.000000,,2013-02-03 11:02:00,
2013-02-03 11:11:00,1.0,-2.0,-100.00,WSW,242,1.0,2.0,85,0.00,,,0.00,0.000000,,2013-02-03 11:11:00,
2013-02-03 11:32:00,3.0,0.0,-100.00,SSW,208,3.0,4.0,86,0.00,,,0.00,0.000000,,2013-02-03 11:32:00,
2013-02-03 11:42:00,3.0,0.0,-100.00,SSW,208,3.0,4.0,86,0.00,,,0.00,0.000000,,2013-02-03 11:42:00,
2013-02-03 11:52:00,3.0,0.0,-100.00,SSW,208,3.0,4.0,86,0.00,,,0.00,0.000000,,2013-02-03 11:52:00,
2013-02-03 12:02:00,3.0,0.0,-100.00,SSW,208,3.0,4.0,86,0.00,,,0.00,0.000000,,2013-02-03 12:02:00,
2013-02-03 12:11:00,3.0,0.0,-100.00,SSW,208,3.0,4.0,86,0.00,,,0.00,0.000000,,2013-02-03 12:11:00,
2013-02-03 12:32:00,5.0,2.0,-100.00,SW,227,3.0,5.0,87,0.00,,,0.00,0.000000,,2013-02-03 12:32:00,
2013-02-03 12:42:00,5.0,2.0,-100.00,SW,227,3.0,5.0,87,0.00,,,0.00,0.000000,,2013-02-03 12:42:00,
2013-02-03 12:53:00,5.0,2.0,-100.00,SW,227,3.0,5.0,87,0.00,,,0.00,0.000000,,2013-02-03 12:53:00,
2013-02-03 13:03:00,5.0,2.0,-100.00,SW,227,3.0,5.0,87,0.00,,,0.00,0.000000,,2013-02-03 13:03:00,
2013-02-03 13:11:00,5.0,2.0,-100.00,SW,227,3.0,5.0,87,0.00,,,0.00,0.000000,,2013-02-03 13:11:00,
2013-02-03 13:32:00,9.0,5.0,-100.00,WNW,288,8.0,12.0,85,0.00,,,0.00,0.000000,,2013-02-03 13:32:00,
2013-02-03 13:42:00,9.0,5.0,-100.00,WNW,288,8.0,12.0,85,0.00,,,0.00,0.000000,,2013-02-03 13:42:00,
2013-02-03 13:52:00,9.0,5.0,-100.00,WNW,288,8.0,12.0,85,0.00,,,0.00,0.000000,,2013-02-03 13:52:00,
2013-02-03 14:02:00,9.0,5.0,-100.00,WNW,288,8.0,12.0,85,0.00,,,0.00,0.000000,,2013-02-03 14:02:00,
2013-02-03 14:11:00,9.0,5.0,-100.00,WNW,288,8.0,12.0,85,0.00,,,0.00,0.000000,,2013-02-03 14:11:00,
2013-02-03 14:42:00,9.0,4.0,-100.00,WNW,292,10.0,16.0,79,0.00,,,0.00,18.000000,,2013-02-03 14:42:00,
2013-02-03 14:52:00,9.0,4.0,-100.00,WNW,292,10.0,16.0,79,0.00,,,0.00,18.000000,,2013-02-03 14:52:00,
2013-02-03 15:03:00,9.0,4.0,-100.00,WNW,292,10.0,16.0,79,0.00,,,0.00,18.000000,,2013-02-03 15:03:00,
2013-02-03 15:11:00,9.0,4.0,-100.00,WNW,292,10.0,16.0,79,0.00,,,0.00,18.000000,,2013-02-03 15:11:00,
2013-02-03 15:33:00,11.0,4.0,-100.00,WNW,300,11.0,16.0,72,0.00,,,0.00,136.000000,,2013-02-03 15:33:00,
2013-02-03 15:42:00,11.0,4.0,-100.00,WNW,300,11.0,16.0,72,0.00,,,0.00,136.000000,,2013-02-03 15:42:00,
2013-02-03 15:52:00,11.0,4.0,-100.00,WNW,300,11.0,16.0,72,0.00,,,0.00,136.000000,,2013-02-03 15:52:00,
2013-02-03 16:02:00,11.0,4.0,-100.00,WNW,300,11.0,16.0,72,0.00,,,0.00,136.000000,,2013-02-03 16:02:00,
2013-02-03 16:11:00,11.0,4.0,-100.00,WNW,300,11.0,16.0,72,0.00,,,0.00,136.000000,,2013-02-03 16:11:00,
2013-02-03 16:33:00,12.0,2.0,-100.00,WNW,299,12.0,22.0,62,0.00,,,0.00,329.000000,,2013-02-03 16:33:00,
2013-02-03 16:42:00,12.0,2.0,-100.00,WNW,299,12.0,22.0,62,0.00,,,0.00,329.000000,,2013-02-03 16:42:00,
2013-02-03 16:52:00,12.0,2.0,-100.00,WNW,299,12.0,22.0,62,0.00,,,0.00,329.000000,,2013-02-03 16:52:00,
2013-02-03 17:02:00,12.0,2.0,-100.00,WNW,299,12.0,22.0,62,0.00,,,0.00,329.000000,,2013-02-03 17:02:00,
2013-02-03 17:11:00,12.0,2.0,-100.00,WNW,299,12.0,22.0,62,0.00,,,0.00,329.000000,,2013-02-03 17:11:00,
2013-02-03 17:12:00,14.0,2.0,-100.00,WNW,301,12.0,20.0,59,0.00,,,0.00,457.000000,,2013-02-03 17:12:00,
2013-02-03 17:32:00,14.0,2.0,-100.00,WNW,301,12.0,20.0,59,0.00,,,0.00,457.000000,,2013-02-03 17:32:00,
2013-02-03 17:42:00,14.0,2.0,-100.00,WNW,301,12.0,20.0,59,0.00,,,0.00,457.000000,,2013-02-03 17:42:00,
2013-02-03 17:52:00,14.0,2.0,-100.00,WNW,301,12.0,20.0,59,0.00,,,0.00,457.000000,,2013-02-03 17:52:00,
2013-02-03 18:03:00,14.0,2.0,-100.00,WNW,301,12.0,20.0,59,0.00,,,0.00,457.000000,,2013-02-03 18:03:00,
2013-02-03 18:33:00,16.0,2.0,-100.00,WNW,294,10.0,18.0,54,0.00,,,0.00,522.000000,,2013-02-03 18:33:00,
2013-02-03 18:42:00,16.0,2.0,-100.00,WNW,294,10.0,18.0,54,0.00,,,0.00,522.000000,,2013-02-03 18:42:00,
2013-02-03 18:52:00,16.0,2.0,-100.00,WNW,294,10.0,18.0,54,0.00,,,0.00,522.000000,,2013-02-03 18:52:00,
2013-02-03 19:02:00,16.0,2.0,-100.00,WNW,294,10.0,18.0,54,0.00,,,0.00,522.000000,,2013-02-03 19:02:00,
2013-02-03 19:11:00,16.0,2.0,-100.00,WNW,294,10.0,18.0,54,0.00,,,0.00,522.000000,,2013-02-03 19:11:00,
2013-02-03 19:12:00,17.0,2.0,-100.00,NW,305,11.0,18.0,50,0.00,,,0.00,515.000000,,2013-02-03 19:12:00,
2013-02-03 19:33:00,17.0,2.0,-100.00,NW,305,11.0,18.0,50,0.00,,,0.00,515.000000,,2013-02-03 19:33:00,
2013-02-03 19:42:00,17.0,2.0,-100.00,NW,305,11.0,18.0,50,0.00,,,0.00,515.000000,,2013-02-03 19:42:00,
2013-02-03 19:52:00,17.0,2.0,-100.00,NW,305,11.0,18.0,50,0.00,,,0.00,515.000000,,2013-02-03 19:52:00,
2013-02-03 20:01:00,17.0,2.0,-100.00,NW,305,11.0,18.0,50,0.00,,,0.00,515.000000,,2013-02-03 20:01:00,
2013-02-03 20:42:00,19.0,3.0,-100.00,West,277,10.0,17.0,49,0.00,,,0.00,420.000000,,2013-02-03 20:42:00,
2013-02-03 20:52:00,19.0,3.0,-100.00,West,277,10.0,17.0,49,0.00,,,0.00,420.000000,,2013-02-03 20:52:00,
2013-02-03 21:03:00,19.0,3.0,-100.00,West,277,10.0,17.0,49,0.00,,,0.00,420.000000,,2013-02-03 21:03:00,
2013-02-03 21:11:00,19.0,3.0,-100.00,West,277,10.0,17.0,49,0.00,,,0.00,420.000000,,2013-02-03 21:11:00,
2013-02-03 21:33:00,17.0,3.0,-100.00,West,274,9.0,15.0,53,0.00,,,0.00,205.000000,,2013-02-03 21:33:00,
2013-02-03 21:42:00,17.0,3.0,-100.00,West,274,9.0,15.0,53,0.00,,,0.00,205.000000,,2013-02-03 21:42:00,
2013-02-03 21:52:00,17.0,3.0,-100.00,West,274,9.0,15.0,53,0.00,,,0.00,205.000000,,2013-02-03 21:52:00,
2013-02-03 22:01:00,17.0,3.0,-100.00,West,274,9.0,15.0,53,0.00,,,0.00,205.000000,,2013-02-03 22:01:00,
2013-02-03 22:11:00,17.0,3.0,-100.00,West,274,9.0,15.0,53,0.00,,,0.00,205.000000,,2013-02-03 22:11:00,
2013-02-03 22:12:00,17.0,2.0,-100.00,WNW,283,9.0,15.0,51,0.00,,,0.00,154.000000,,2013-02-03 22:12:00,
2013-02-03 22:32:00,17.0,2.0,-100.00,WNW,283,9.0,15.0,51,0.00,,,0.00,154.000000,,2013-02-03 22:32:00,
2013-02-03 22:42:00,17.0,2.0,-100.00,WNW,283,9.0,15.0,51,0.00,,,0.00,154.000000,,2013-02-03 22:42:00,
2013-02-03 22:52:00,17.0,2.0,-100.00,WNW,283,9.0,15.0,51,0.00,,,0.00,154.000000,,2013-02-03 22:52:00,
2013-02-03 23:01:00,17.0,2.0,-100.00,WNW,283,9.0,15.0,51,0.00,,,0.00,154.000000,,2013-02-03 23:01:00,
2013-02-03 23:33:00,14.0,1.0,-100.00,WNW,287,4.0,12.0,56,0.00,,,0.00,43.000000,,2013-02-03 23:33:00,
2013-02-03 23:42:00,14.0,1.0,-100.00,WNW,287,4.0,12.0,56,0.00,,,0.00,43.000000,,2013-02-03 23:42:00,
2013-02-03 23:52:00,14.0,1.0,-100.00,WNW,287,4.0,12.0,56,0.00,,,0.00,43.000000,,2013-02-03 23:52:00,